Wind_Speed
19 30 32 32 34 34 32 32 29 33 30 27 24 19 16 15 12 11 12 11 10 12 9 5 7 8 6 3 4 8 11 12 11 5 3 17 19 13 5 9 5 7 10
20 24 31 30 37 36 36 37 32 32 33 32 28 24 20 14 15 13 16 15 15 13 11 9 10 5 6 2 2 5 8 8 16 3 5 3 5 3 3 4 8 16 12
22 19 23 35 35 34 36 37 33 37 35 32 28 24 20 16 17 15 17 17 16 17 14 7 8 5 4 3 2 5 6 9 12 14 2 2 1 4 1 2 4 8 14
20 20 19 31 36 37 38 38 36 37 35 31 29 25 22 18 20 20 19 19 20 17 19 12 10 4 5 1 5 5 2 8 13 11 13 11 3 3 2 9 4 12 18
24 23 20 28 37 37 36 38 37 36 34 32 28 25 26 25 24 21 21 23 23 21 19 21 15 10 7 8 3 5 5 3 8 11 15 15 12 2 1 3 8 9 13
24 23 30 29 31 36 35 35 38 38 37 34 32 30 26 26 25 22 26 27 26 24 21 21 19 15 14 10 6 8 9 5 5 7 9 12 7 14 7 1 3 7 15
23 22 21 21 26 35 34 33 36 34 37 36 35 33 31 31 26 25 24 24 23 22 24 24 23 19 19 16 8 5 7 4 6 7 10 10 11 12 14 11 4 4 9
24 25 23 26 26 37 36 36 37 34 39 37 36 34 34 30 33 24 23 21 24 24 24 23 25 23 21 20 16 11 11 13 12 10 9 10 11 12 12 12 13 3 5
25 25 23 29 30 34 38 38 39 37 39 37 36 33 33 34 28 29 24 27 24 22 22 21 29 24 20 19 20 17 13 14 12 12 10 11 12 11 11 15 15 4 0
24 22 22 29 32 36 39 38 41 40 38 36 38 34 33 31 31 26 26 29 29 25 21 16 26 27 26 23 22 20 15 15 14 12 13 13 11 13 12 12 12 9 3
19 21 19 30 32 33 34 36 37 37 36 37 34 32 33 34 31 29 24 27 24 23 22 20 21 21 23 24 24 20 18 15 10 15 14 10 10 14 16 13 13 10 6
15 19 17 27 28 29 32 33 34 36 37 36 34 33 31 31 32 32 28 23 24 25 21 21 21 23 25 27 25 21 19 19 11 14 16 16 13 15 14 14 14 11 8
3 14 15 19 25 29 31 32 29 34 35 36 34 34 33 34 31 33 30 26 26 24 26 19 19 22 23 22 23 22 21 22 18 13 14 15 16 16 15 15 14 15 15
18 21 16 9 26 32 30 33 32 31 34 35 36 33 34 35 32 32 30 29 27 27 25 24 24 25 24 22 21 19 20 21 19 19 19 18 17 18 18 17 20 17 16
17 17 22 30 33 29 30 33 36 35 36 34 35 35 37 34 34 30 30 31 28 27 24 29 24 25 25 24 24 24 22 21 20 21 22 20 20 21 22 21 24 21 20
18 19 26 37 27 7 22 28 33 33 36 36 33 34 34 35 35 33 29 30 30 27 27 26 30 27 27 29 27 25 25 24 24 24 23 24 21 22 19 20 26 25 24
15 16 9 32 18 21 16 17 18 23 30 32 30 31 34 33 34 33 32 31 33 28 26 26 25 26 31 28 26 26 26 27 27 24 24 23 25 23 22 20 18 17 19
14 13 14 34 37 35 19 13 8 10 8 18 28 31 32 32 33 31 31 28 29 32 30 30 29 27 28 27 26 26 27 25 29 29 24 21 22 23 20 16 19 19 18
1 3 16 26 24 40 35 25 11 10 7 4 9 17 25 29 30 29 28 28 27 29 31 29 29 28 27 25 23 24 27 29 25 24 26 28 26 25 25 25 24 25 22
13 10 20 29 37 32 32 29 10 6 10 7 2 7 10 14 22 27 27 28 29 30 29 31 30 29 27 22 21 20 23 26 26 27 26 25 28 30 30 27 24 22 21
8 15 16 8 18 21 19 18 12 9 5 6 7 2 6 10 12 18 23 25 26 26 27 27 22 18 19 21 21 17 15 26 31 30 26 23 23 24 27 28 22 17 17
11 14 16 16 13 8 11 10 9 10 11 4 3 7 4 6 8 7 13 16 17 17 12 10 12 10 11 23 21 21 12 30 38 35 28 26 16 12 21 20 18 17 17
14 11 13 18 19 14 11 11 8 8 6 5 3 4 7 9 7 6 13 7 4 8 14 17 10 20 29 26 21 19 18 28 38 34 28 17 13 11 15 15 16 17 16
19 21 16 16 19 18 19 19 19 17 14 12 9 9 8 7 7 6 8 13 14 11 17 15 23 26 30 31 24 17 15 16 16 17 16 15 12 9 10 13 16 17 16
19 22 21 20 16 14 20 16 15 18 16 17 13 14 15 15 13 13 16 15 15 18 24 25 23 22 24 25 21 22 24 20 14 10 13 13 12 11 12 13 15 14 15
20 21 25 23 24 23 16 14 14 14 18 18 17 18 18 11 21 18 17 18 17 16 18 20 19 22 22 17 11 10 13 20 20 18 17 18 13 12 6 12 14 17 19
Wind_Direction
165 170 171 176 177 183 182 190 191 183 181 181 181 192 205 205 212 215 210 231 213 215 240 263 267 327 309 74 12 344 355 2 18 148 114 93 113 128 141 350 67 214 223
156 170 177 173 174 179 186 191 193 184 186 187 188 192 204 207 220 218 219 225 213 217 236 257 271 3 31 86 294 3 4 351 358 5 75 41 176 202 338 294 262 285 252
165 170 173 180 178 180 186 192 193 188 187 189 190 199 209 208 220 221 218 202 210 216 225 256 262 296 359 355 290 353 349 342 0 6 105 81 265 343 301 252 208 235 228
167 168 171 176 174 182 187 192 193 191 192 194 194 197 201 203 212 221 215 211 215 223 221 231 242 268 248 139 348 346 294 24 13 7 2 2 174 181 331 298 251 194 217
166 170 178 169 174 177 181 188 192 192 192 192 196 203 207 212 215 222 226 221 215 226 226 231 239 234 249 240 260 299 262 15 5 349 351 0 17 335 171 309 328 327 300
169 170 173 174 172 175 178 184 188 191 190 192 195 202 204 209 213 217 219 219 219 224 228 229 229 238 239 242 228 265 288 236 316 326 345 358 2 354 339 32 309 7 19
163 164 167 175 164 174 178 182 187 190 196 200 204 205 210 212 215 217 216 218 221 222 231 230 227 230 237 239 236 224 245 261 284 288 313 323 322 334 338 337 336 12 27
162 168 169 176 173 173 178 182 185 189 195 200 205 210 212 218 223 221 224 219 222 219 231 231 230 226 235 243 240 236 229 241 255 268 284 310 315 307 326 338 323 337 25
165 168 171 176 176 170 174 176 182 186 191 195 199 207 215 218 221 223 223 225 221 222 229 240 231 228 231 231 244 242 228 240 258 288 254 276 291 304 324 358 1 248 234
165 167 171 176 179 176 179 180 182 185 189 192 201 204 212 218 221 222 228 229 228 227 229 231 225 246 226 226 235 239 237 253 258 259 267 262 270 280 301 324 347 23 54
157 168 172 177 179 178 178 182 181 182 185 189 193 197 206 213 217 216 229 231 228 224 220 229 231 230 221 225 225 228 235 239 265 255 250 268 273 283 292 291 305 335 345
155 165 168 173 177 178 182 184 183 183 186 189 192 196 199 206 212 219 223 227 228 223 221 221 223 222 220 225 226 229 236 239 252 261 261 268 269 280 285 283 295 310 330
267 164 155 171 178 181 181 185 186 188 186 186 189 194 199 203 207 215 221 223 227 225 223 225 223 219 218 222 229 234 234 243 247 259 258 263 270 275 272 272 266 279 285
1 358 8 181 178 180 178 183 186 187 188 188 190 193 196 201 203 211 217 216 225 223 228 220 222 221 220 221 222 220 228 242 249 249 255 257 263 268 269 258 259 268 275
358 353 352 332 286 181 178 179 185 184 184 192 192 194 197 198 203 207 214 212 221 227 231 220 220 222 221 223 227 227 230 238 245 250 254 256 259 264 264 266 260 260 261
14 42 11 306 239 128 170 166 179 182 183 188 197 196 193 194 201 206 211 211 216 220 223 226 227 222 223 228 232 231 230 236 239 244 253 259 261 262 266 264 262 264 266
38 28 340 313 304 17 113 120 138 184 184 188 194 194 193 194 200 204 210 215 216 217 219 221 224 231 234 236 235 233 238 241 244 248 249 259 257 259 271 273 268 267 269
44 21 354 313 339 345 53 113 118 110 148 184 191 194 192 192 201 204 209 213 215 215 220 223 227 232 237 238 237 238 245 250 250 246 244 249 253 257 259 272 276 279 275
30 349 313 310 352 11 1 42 62 90 99 99 161 199 203 199 203 206 211 215 215 214 216 223 226 229 235 239 243 244 247 252 253 250 247 251 253 254 260 269 273 275 271
330 333 331 356 351 360 358 25 34 37 28 38 148 204 212 217 210 215 219 220 218 220 219 225 226 227 230 233 239 241 246 253 256 255 255 261 268 272 271 267 268 260 266
310 317 311 331 326 342 359 3 348 12 36 39 51 225 233 226 235 233 230 224 223 224 226 230 230 228 223 223 220 212 244 260 256 249 248 254 261 263 262 259 248 252 270
278 314 308 303 312 325 339 347 327 346 352 38 148 163 191 235 218 249 260 241 231 233 243 258 200 221 261 235 213 208 199 251 248 238 228 226 243 267 245 237 243 255 260
259 264 279 292 289 296 318 331 345 324 325 317 63 120 161 210 237 228 242 199 207 146 157 141 206 234 228 245 248 238 239 247 244 237 237 235 230 217 211 222 245 253 255
321 310 267 270 277 281 291 293 308 316 334 295 278 275 269 249 238 203 186 178 184 220 224 221 223 242 247 250 245 240 229 224 221 229 231 228 221 218 213 225 237 249 261
306 310 316 296 280 293 276 276 297 301 302 310 295 286 266 253 243 217 213 215 226 236 240 242 245 249 253 259 262 258 242 229 224 214 201 199 188 198 212 233 244 248 247
306 303 299 294 299 283 272 264 272 278 296 299 288 290 301 268 263 243 231 227 234 234 238 241 235 240 252 257 265 270 234 228 233 224 230 212 210 217 240 254 253 244 234
Height
755 764 771 777 785 791 796 801 805 809 813 817 820 824 827 831 833 834 836 838 840 842 844 846 847 849 849 848 848 847 846 844 845 844 844 849 850 846 844 845 845 843 846
753 760 766 773 779 785 791 796 801 805 808 812 816 821 826 828 831 832 834 837 839 841 842 843 845 847 848 848 848 846 846 846 845 843 843 847 852 847 844 845 846 845 844
747 752 759 765 773 779 785 791 796 800 804 809 814 819 823 825 827 829 831 834 837 839 840 842 842 845 848 847 846 847 848 847 846 843 844 849 851 846 844 842 843 843 840
737 744 751 761 766 772 779 786 791 795 800 805 811 815 818 821 823 825 827 829 833 835 837 839 842 844 846 846 847 846 846 847 847 845 844 846 845 849 846 839 840 840 839
728 738 742 749 759 768 775 780 786 792 797 801 806 811 814 817 821 823 824 826 828 830 832 835 839 843 844 846 847 848 847 847 848 848 847 844 844 844 845 845 839 838 836
723 730 737 746 753 762 769 776 781 787 792 797 801 806 809 813 817 819 820 821 824 826 828 831 835 839 841 844 846 847 847 847 847 848 848 847 846 845 844 843 841 840 837
718 728 735 741 749 757 763 770 776 782 787 792 796 800 804 809 811 814 816 819 823 824 826 828 831 835 837 840 842 843 844 844 844 846 846 846 846 846 845 844 841 841 840
710 720 727 734 741 748 756 762 768 775 781 786 790 794 800 804 807 810 813 816 818 821 824 825 827 829 832 836 839 841 842 843 843 844 844 843 843 844 845 845 843 841 841
705 712 721 727 733 740 747 753 761 768 774 780 785 789 794 798 802 806 809 812 816 820 822 822 824 827 831 831 835 837 838 839 839 840 840 841 842 842 843 843 842 839 844
703 709 716 722 728 732 738 746 751 758 765 772 778 783 787 792 797 802 804 807 811 816 819 819 820 821 827 830 833 835 835 836 837 838 839 840 841 841 841 842 842 841 839
702 708 714 720 726 731 737 741 746 751 758 764 770 777 782 787 791 796 799 802 806 811 815 816 817 818 821 827 832 834 834 835 835 836 838 838 839 839 839 839 839 839 839
697 702 708 716 723 729 736 740 744 747 751 757 764 770 777 781 786 789 793 797 801 805 809 813 814 816 819 823 825 827 829 830 831 833 833 834 835 835 836 837 837 836 836
696 692 698 706 714 722 730 738 745 747 749 753 758 764 769 775 779 783 787 792 796 800 803 807 810 812 816 818 820 822 824 826 827 828 829 830 831 831 832 834 834 833 831
734 727 719 701 706 707 717 728 736 746 752 752 753 757 761 767 773 777 782 787 791 795 798 801 805 808 812 815 817 818 820 821 822 824 825 826 827 827 828 829 829 829 828
737 728 731 724 734 705 705 716 726 732 741 752 750 750 754 760 767 773 777 781 786 790 793 796 799 802 806 808 811 813 815 816 818 819 820 821 822 823 823 824 824 824 823
741 729 740 746 685 700 700 705 716 726 733 740 749 749 750 755 760 768 773 777 780 785 790 792 795 797 799 802 804 806 808 810 811 813 814 815 816 817 817 817 818 819 820
759 752 776 743 706 698 700 709 715 723 729 736 742 748 747 752 757 762 768 772 776 781 785 787 790 792 795 798 801 803 804 805 806 807 809 809 810 812 812 812 812 813 815
761 752 755 740 735 718 706 711 716 724 733 734 737 743 745 748 754 758 763 767 771 775 780 784 786 789 791 795 798 800 801 802 802 803 803 804 805 806 807 808 807 808 809
770 764 753 730 732 707 724 716 727 730 735 738 737 742 745 746 750 754 757 762 765 768 773 777 780 782 785 789 792 795 796 798 799 800 800 800 800 801 802 802 802 802 802
769 758 753 732 718 740 730 719 739 739 740 738 738 740 743 748 749 751 754 756 759 761 764 768 771 773 777 783 786 789 792 793 795 795 795 796 797 797 798 798 797 797 798
766 762 758 749 747 745 745 749 751 745 741 739 737 742 743 745 748 749 751 751 756 758 760 764 767 773 774 776 776 777 784 788 789 788 787 786 786 788 790 792 792 792 794
771 762 760 754 754 754 755 751 750 750 744 740 740 740 744 746 745 745 750 751 753 756 759 766 765 767 767 772 770 768 759 769 774 779 777 773 774 777 782 786 788 787 788
771 765 763 762 762 757 756 753 751 749 747 747 744 742 741 745 742 740 748 749 750 754 755 752 749 765 771 769 766 764 759 763 767 771 773 772 769 767 773 778 782 782 782
767 764 759 758 757 755 750 749 749 749 749 746 746 745 743 742 744 744 747 745 743 747 750 747 755 758 764 761 758 756 757 761 762 765 769 768 764 764 765 769 773 775 776
764 761 760 754 751 750 748 747 747 747 749 748 747 746 744 746 744 742 743 741 738 739 738 739 743 749 750 747 748 750 753 757 759 763 764 763 759 759 760 763 767 768 773
762 759 756 753 751 747 746 747 747 746 745 745 744 744 743 743 747 740 737 736 735 735 736 735 734 737 740 745 745 746 746 750 755 758 758 754 754 755 750 756 760 764 768